STARLINK-4375 (53192 NORAD) Tracking and Keplerian Element Data

This shows tracking and keplerian element data for the satellite.

Feedback or suggestion? Click here.




ElementValue
Catalog53192
NameSTARLINK-4375
Epoch Orbit1071
Epoch Day270.11047953
Epoch Year2022
RAAN329.9441
Inclination97.656
Eccentricity0.0002588
Argument of Perigee103.2347
Mean Anonmoly256.9166
Mean Motion15.01258697
Decay Rate-1.332E-05
L11 53192U 22084D 22270.11047953 -.00001332 00000+0 -99149-4 0 9995
L22 53192 97.6560 329.9441 0002588 103.2347 256.9166 15.01258697 10718

Live tracking and technical data element details for STARLINK-4375 (NORAD 53192). STARLINK-4375 can be tracked NOW for your location showing map with azimuth and elevation plus other details from your city location.

Track the satellite on the map from your city or location and see movement details for azimuth, elevation, latitude, longitude, range, height, and movement on the map or in text.







IsCatalogInMostPopularTable: catalog: 53192, numindb: 8
Update: records affected: 1



GetName: 53192 STARLINK-4375

Hit Count: updated at: Thu, 29 Sep 2022 10:19:39 GMT